Weather History for Corinth, MS

Change the Weather History Date:

Wednesday, November 21, 2012

  Actual Average Record
Temperature  
Mean Temperature 52 °F -  
Max Temperature 68 °F 60 °F 77 °F (1943)
Min Temperature 37 °F 38 °F 17 °F (1937)
Degree Days  
Heating Degree Days 12    
Growing Degree Days 2 (Base 50)    
Moisture  
Dew Point 42 °F    
Average Humidity 76    
Maximum Humidity 100    
Minimum Humidity 37    
Precipitation  
Precipitation 0.00 in - - ()
Sea Level Pressure  
Sea Level Pressure 30.20 in    
Wind  
Wind Speed 2 mph (NNW)    
Max Wind Speed 12 mph    
Max Gust Speed -    
Visibility 7 miles    
Events Fog    
Averages and records for this station are not official NWS values.
T = Trace of Precipitation, MM = Missing Value Source: NWS Daily Summary

Daily Weather History Graph

Daily Weather History Graph

Search for Another Location

Airport:

Trip Planner

Search our weather history database for the weather conditions in past years. The results will help you decide how hot, cold, wet, or windy it might be!

Date:

Astronomy

Nov. 21, 2012 Rise Set
Actual Time 6:35 AM CST 4:45 PM CST
Civil Twilight 6:07 AM CST 5:12 PM CST
Nautical Twilight 5:36 AM CST 5:43 PM CST
Astronomical Twilight 5:06 AM CST 6:13 PM CST
Moon 12:49 PM CST (11/21) 12:08 AM CST (11/21)
Length of Visible Light 11h 05m
Length of Day
10h 10m
First Quarter, 62% of the Moon is Illuminated
Nov 21
First Quarter
Nov 28
Full
Dec 6
Last Quarter
Dec 13
New
Dec 19
First Quarter

Hourly Weather History & Observations

Time (CST) Temp. Windchill Dew Point Humidity Pressure Visibility Wind Dir Wind Speed Gust Speed Precip Events Conditions
12:05 AM 44.6 °F 43.1 °F 42.8 °F 93% 30.12 in 10.0 mi West 3.5 mph - N/A   Clear
12:25 AM 44.6 °F - 42.8 °F 93% 30.12 in 7.0 mi Calm Calm - N/A   Clear
12:45 AM 44.6 °F - 44.6 °F 100% 30.12 in 7.0 mi Calm Calm - N/A   Clear
1:05 AM 44.6 °F - 42.8 °F 93% 30.13 in 4.0 mi Calm Calm - N/A   Clear
1:25 AM 42.8 °F - 41.0 °F 93% 30.14 in 4.0 mi Calm Calm - N/A   Clear
1:45 AM 44.6 °F - 41.0 °F 87% 30.14 in 5.0 mi Calm Calm - N/A   Clear
2:05 AM 42.8 °F - 41.0 °F 93% 30.14 in 1.0 mi Calm Calm - N/A   Clear
2:25 AM 41.0 °F - 39.2 °F 93% 30.14 in 0.5 mi Calm Calm - N/A Fog Fog
2:45 AM 41.0 °F - 41.0 °F 100% 30.14 in 0.8 mi Calm Calm - N/A   Mist
3:05 AM 41.0 °F - 39.2 °F 93% 30.15 in 1.0 mi Calm Calm - N/A   Clear
3:25 AM 41.0 °F - 39.2 °F 93% 30.15 in 1.2 mi Calm Calm - N/A   Clear
3:45 AM 41.0 °F - 39.2 °F 93% 30.15 in 0.5 mi Calm Calm - N/A Fog Fog
4:05 AM 39.2 °F - 39.2 °F 100% 30.15 in 0.5 mi Calm Calm - N/A Fog Fog
4:25 AM 39.2 °F 37.0 °F 39.2 °F 100% 30.16 in 0.5 mi NW 3.5 mph - N/A Fog Fog
4:45 AM 39.2 °F 37.0 °F 37.4 °F 93% 30.18 in 4.0 mi West 3.5 mph - N/A   Clear
5:05 AM 39.2 °F 35.0 °F 37.4 °F 93% 30.18 in 4.0 mi WNW 5.8 mph - N/A   Clear
5:25 AM 37.4 °F 34.9 °F 37.4 °F 100% 30.19 in 2.5 mi WNW 3.5 mph - N/A   Clear
5:45 AM 39.2 °F 35.9 °F 39.2 °F 100% 30.19 in 1.8 mi WNW 4.6 mph - N/A   Clear
6:05 AM 41.0 °F 39.0 °F 39.2 °F 93% 30.20 in 1.8 mi NW 3.5 mph - N/A   Clear
6:25 AM 41.0 °F - 41.0 °F 100% 30.20 in 0.2 mi Calm Calm - N/A Fog Fog
6:45 AM 41.0 °F 38.0 °F 41.0 °F 100% 30.20 in 0.2 mi WNW 4.6 mph - N/A Fog Fog
7:05 AM 39.2 °F - 37.4 °F 93% 30.21 in 0.2 mi Calm Calm - N/A Fog Fog
7:25 AM 41.0 °F - 39.2 °F 93% 30.22 in 0.2 mi Calm Calm - N/A Fog Fog
7:45 AM 44.6 °F 43.1 °F 42.8 °F 93% 30.22 in 2.5 mi NW 3.5 mph - N/A   Clear
8:05 AM 48.2 °F - 46.4 °F 93% 30.23 in 5.0 mi Calm Calm - N/A   Clear
8:25 AM 50.0 °F - 46.4 °F 87% 30.23 in 7.0 mi NNW 3.5 mph - N/A   Clear
8:45 AM 51.8 °F - 48.2 °F 88% 30.24 in 10.0 mi NW 3.5 mph - N/A   Clear
9:05 AM 55.4 °F - 48.2 °F 77% 30.25 in 10.0 mi North 4.6 mph - N/A   Clear
9:25 AM 59.0 °F - 46.4 °F 63% 30.25 in 10.0 mi NE 9.2 mph - N/A   Clear
9:45 AM 60.8 °F - 44.6 °F 55% 30.25 in 10.0 mi NNE 8.1 mph - N/A   Clear
10:05 AM 62.6 °F - 44.6 °F 52% 30.25 in 10.0 mi North 9.2 mph - N/A   Clear
10:25 AM 64.4 °F - 44.6 °F 49% 30.24 in 10.0 mi NE 11.5 mph - N/A   Clear
10:45 AM 64.4 °F - 44.6 °F 49% 30.24 in 10.0 mi ENE 6.9 mph - N/A   Clear
11:05 AM 64.4 °F - 44.6 °F 49% 30.23 in 10.0 mi NE 5.8 mph - N/A   Clear
11:25 AM 64.4 °F - 44.6 °F 49% 30.22 in 10.0 mi ENE 6.9 mph - N/A   Clear
11:45 AM 66.2 °F - 44.6 °F 46% 30.22 in 10.0 mi North 5.8 mph - N/A   Clear
12:05 PM 66.2 °F - 44.6 °F 46% 30.21 in 10.0 mi NNE 4.6 mph - N/A   Clear
12:25 PM 66.2 °F - 44.6 °F 46% 30.21 in 10.0 mi NE 4.6 mph - N/A   Clear
12:45 PM 66.2 °F - 44.6 °F 46% 30.21 in 10.0 mi NNW 8.1 mph - N/A   Clear
1:05 PM 66.2 °F - 42.8 °F 43% 30.20 in 10.0 mi North 4.6 mph - N/A   Clear
1:25 PM 68.0 °F - 42.8 °F 40% 30.19 in 10.0 mi NE 9.2 mph - N/A   Clear
2:05 PM 68.0 °F - 41.0 °F 37% 30.19 in 10.0 mi NE 8.1 mph - N/A   Clear
2:25 PM 68.0 °F - 42.8 °F 40% 30.19 in 10.0 mi NNW 5.8 mph - N/A   Clear
2:45 PM 68.0 °F - 42.8 °F 40% 30.18 in 10.0 mi North 5.8 mph - N/A   Clear
3:05 PM 66.2 °F - 42.8 °F 43% 30.18 in 10.0 mi North 4.6 mph - N/A   Clear
3:25 PM 66.2 °F - 41.0 °F 40% 30.18 in 10.0 mi NNE 5.8 mph - N/A   Clear
3:45 PM 66.2 °F - 41.0 °F 40% 30.18 in 10.0 mi North 5.8 mph - N/A   Clear
4:05 PM 64.4 °F - 42.8 °F 45% 30.18 in 10.0 mi NNW 3.5 mph - N/A   Clear
4:25 PM 62.6 °F - 41.0 °F 45% 30.19 in 10.0 mi NW 4.6 mph - N/A   Clear
4:45 PM 60.8 °F - 41.0 °F 48% 30.19 in 10.0 mi NNW 4.6 mph - N/A   Clear
5:05 PM 59.0 °F - 42.8 °F 55% 30.19 in 10.0 mi NW 3.5 mph - N/A   Clear
5:25 PM 57.2 °F - 42.8 °F 59% 30.19 in 10.0 mi Calm Calm - N/A   Clear
5:45 PM 53.6 °F - 42.8 °F 67% 30.20 in 10.0 mi Calm Calm - N/A   Clear
6:05 PM 53.6 °F - 42.8 °F 67% 30.20 in 10.0 mi North 4.6 mph - N/A   Clear
6:25 PM 50.0 °F - 42.8 °F 76% 30.20 in 10.0 mi Calm Calm - N/A   Clear
6:45 PM 50.0 °F - 42.8 °F 76% 30.20 in 10.0 mi NW 3.5 mph - N/A   Clear
7:05 PM 46.4 °F - 41.0 °F 81% 30.21 in 10.0 mi Calm Calm - N/A   Clear
7:25 PM 46.4 °F - 41.0 °F 81% 30.21 in 10.0 mi Calm Calm - N/A   Clear
7:45 PM 44.6 °F 43.1 °F 41.0 °F 87% 30.22 in 10.0 mi West 3.5 mph - N/A   Clear
8:05 PM 44.6 °F - 39.2 °F 81% 30.22 in 10.0 mi Calm Calm - N/A   Clear
8:25 PM 44.6 °F - 41.0 °F 87% 30.22 in 7.0 mi Calm Calm - N/A   Clear
8:45 PM 42.8 °F - 39.2 °F 87% 30.22 in 9.0 mi Calm Calm - N/A   Clear
9:05 PM 42.8 °F - 41.0 °F 93% 30.22 in 8.0 mi Calm Calm - N/A   Clear
9:25 PM 41.0 °F - 39.2 °F 93% 30.22 in 9.0 mi Calm Calm - N/A   Clear
9:45 PM 41.0 °F - 39.2 °F 93% 30.22 in 7.0 mi Calm Calm - N/A   Clear
10:05 PM 41.0 °F - 39.2 °F 93% 30.21 in 5.0 mi Calm Calm - N/A   Clear
10:25 PM 39.2 °F - 37.4 °F 93% 30.21 in 4.0 mi Calm Calm - N/A   Clear
10:45 PM 39.2 °F - 37.4 °F 93% 30.21 in 3.0 mi Calm Calm - N/A   Clear
11:05 PM 39.2 °F - 37.4 °F 93% 30.21 in 1.8 mi Calm Calm - N/A   Clear
11:25 PM 39.2 °F - 37.4 °F 93% 30.21 in 3.0 mi Calm Calm - N/A   Clear
11:45 PM 39.2 °F - 37.4 °F 93% 30.21 in 8.0 mi Calm Calm - N/A   Clear